[[{"header":{"parameterUnit":"m.s-1","parameterCategory":1,"la1":30.2991,"la2":30.254,"lo1":-89.0895,"lo2":-89.0444,"dy":0.0017,"dx":0.0017,"nx":28,"ny":28,"refTime":"2024-03-31T21:00:00:Z","depth":0,"parameterNumber":2,"parameterNumberName":"U-component_of_WINDS"},"data":[0,0,0,0,0,0,0,0,0,0,0,0,0,0,0,0,0,0,0,0,0,0,0,0,0,0,0,0,0,0,0,0,0,0,0,0,0,0,0,0,0,0,0,0,0,0,0,0,0,0,0,0,0,0,0,0,0,0,0.1653,0.1653,0,0.1661,0.1661,0.1661,0.165,0.165,0.1649,0.1649,0.1657,0.1658,0.1658,0,0,0,0,0,0,0,0,0,0,0,0,0,0.1629,0.1629,0.1653,0.1653,0.1653,0.1661,0.1661,0.1661,0.165,0.165,0.1649,0.1649,0.1657,0.1657,0.1658,0,0,0,0,0,0,0,0,0,0,0,0,0,0.1638,0.1629,0.1653,0.1649,0.1648,0.1661,0.1661,0.1661,0.165,0.165,0.1649,0.1648,0.1657,0.1657,0.1658,0.1676,0,0,0.1661,0.1661,0,0,0,0,0,0,0,0,0.1638,0.1639,0.1649,0.1649,0.1649,0.1654,0.1655,0.1666,0.165,0.1649,0.1649,0.1648,0.1656,0.1657,0.166,0.1676,0.1676,0.1661,0.1662,0.1662,0.1662,0,0,0,0,0,0,0,0.1637,0.1639,0.1656,0.1649,0.1649,0.1646,0.1647,0.1657,0.1656,0.165,0.1649,0.165,0.1656,0.1659,0.166,0.1676,0.1661,0.1662,0.1662,0.1663,0.1707,0.1707,0,0,0,0,0,0,0.1637,0.1638,0.1656,0.1656,0.1642,0.1647,0.1648,0.1653,0.1656,0.1656,0.165,0.1649,0.1658,0.1659,0.166,0.1681,0.1662,0.1663,0.1663,0.1706,0.1707,0.1707,0,0,0,0,0,0,0.1636,0.1638,0.1656,0.1647,0.1649,0.1648,0.1654,0.1653,0.1656,0.1657,0.1656,0.1654,0.1658,0.1659,0.1672,0.1681,0.1663,0.1664,0.1705,0.1706,0.1707,0.1722,0,0,0,0,0,0,0.1636,0.1638,0.1645,0.1647,0.165,0.1667,0.1654,0.1654,0.1658,0.1657,0.166,0.166,0.1657,0.1671,0.1673,0.1682,0.1665,0.1704,0.1706,0.1707,0.1721,0.1723,0.1725,0,0,0,0,0,0.1635,0.1649,0.1645,0.1648,0.1658,0.1668,0.1669,0.1666,0.1659,0.1665,0.1665,0.166,0.168,0.1672,0.1674,0.1684,0.1704,0.1705,0.1707,0.1719,0.1723,0.1725,0,0,0,0,0,0,0.1648,0.1649,0.1645,0.166,0.1664,0.1666,0.1674,0.1669,0.1675,0.1674,0.1669,0.167,0.1684,0.1685,0.1676,0.1701,0.169,0.1692,0.1699,0.1702,0.1705,0.1704,0.1665,0,0,0,0,0,0.1652,0.166,0.1661,0.1674,0.1676,0.1675,0.1679,0.1676,0.168,0.1681,0.1682,0.1686,0.1693,0.1698,0.1704,0.172,0.1721,0.1728,0.1731,0.1733,0.1735,0.1743,0.1746,0.1712,0.1712,0.1712,0,0,0.1662,0.1664,0.1669,0.1677,0.1679,0.1688,0.1676,0.1685,0.1691,0.1683,0.1695,0.1695,0.1699,0.1714,0.172,0.1715,0.1744,0.1734,0.1736,0.1737,0.1745,0.1748,0.1751,0.1713,0.1713,0.1713,0,0,0.1684,0.1686,0.1697,0.17,0.1704,0.1702,0.1705,0.1708,0.1708,0.172,0.1713,0.172,0.1733,0.1735,0.1739,0.1761,0.1756,0.1763,0.1776,0.1785,0.1788,0.179,0.1798,0.1801,0.1765,0.1765,0.1765,0,0.1695,0.1707,0.1704,0.1713,0.1717,0.1709,0.1721,0.1723,0.1729,0.1732,0.1726,0.1741,0.1743,0.1758,0.1764,0.1766,0.1769,0.1763,0.1788,0.179,0.1792,0.18,0.1803,0.1766,0.1766,0.1766,0.1766,0,0.1722,0.173,0.1739,0.1744,0.1749,0.176,0.1757,0.1762,0.1759,0.1759,0.1771,0.1773,0.178,0.1783,0.178,0.1798,0.1794,0.1788,0.1778,0.1796,0.1804,0.1806,0.1767,0.1767,0.1767,0.1767,0,0,0.1752,0.1755,0.1759,0.1761,0.1764,0.1771,0.1781,0.1788,0.1792,0.1796,0.1805,0.1815,0.1809,0.1813,0.181,0.1817,0.1835,0.181,0.181,0.1815,0.1855,0.186,0.1863,0.1832,0.1832,0.1833,0.1855,0,0.1774,0.1791,0.1788,0.1805,0.1813,0.1806,0.1814,0.1817,0.1817,0.1824,0.1823,0.1831,0.1822,0.1824,0.1831,0.1831,0.1843,0.183,0.1839,0.184,0.1839,0.1867,0.1872,0.1893,0.1857,0.1858,0.1858,0,0.1802,0.1807,0.1825,0.1827,0.183,0.1838,0.1844,0.185,0.1853,0.1853,0.1856,0.1852,0.1862,0.1851,0.1865,0.1856,0.186,0.186,0.1861,0.1862,0.185,0.1869,0.19,0.1903,0.1863,0.1862,0.1862,0,0.1823,0.1834,0.1846,0.1848,0.1851,0.1857,0.1858,0.1861,0.1865,0.187,0.1873,0.1879,0.1882,0.1887,0.1884,0.1876,0.1898,0.1887,0.1898,0.1898,0.1903,0.1903,0.1935,0.1905,0.1905,0.1905,0.1905,0,0.1848,0.1859,0.1855,0.1863,0.1875,0.1871,0.1884,0.1884,0.1887,0.1894,0.1888,0.1895,0.1891,0.1898,0.1896,0.1907,0.1909,0.1908,0.1908,0.1909,0.1909,0.1912,0.191,0.1906,0.1906,0.1905,0.1905,0,0.1873,0.1871,0.1884,0.1885,0.1886,0.1895,0.1896,0.1903,0.1902,0.1912,0.1914,0.1912,0.192,0.1918,0.1926,0.1925,0.1939,0.1937,0.1938,0.1938,0.1949,0.1948,0.1984,0.1988,0.1955,0.1956,0.1956,0,0.1889,0.1897,0.19,0.1904,0.1906,0.1914,0.1918,0.1914,0.1919,0.1923,0.1929,0.1937,0.1942,0.1954,0.1954,0.196,0.1958,0.197,0.1959,0.196,0.1958,0.1958,0.1959,0.1972,0.1973,0.1973,0.1973,0,0.1918,0.1916,0.1923,0.1929,0.1934,0.1938,0.1942,0.1946,0.1943,0.1948,0.1956,0.196,0.1969,0.1976,0.1981,0.1983,0.1978,0.1977,0.198,0.1981,0.1982,0.1982,0.1945,0.1976,0.1976,0.1976,0.1976,0.1975,0.1939,0.1946,0.1949,0.1956,0.1959,0.1963,0.1969,0.1969,0.1976,0.1982,0.198,0.1989,0.1991,0.1998,0.2,0.2007,0.2003,0.2007,0.2008,0.2009,0.201,0.1981,0.2008,0.2008,0.2008,0.2008,0.2008,0,0.1968,0.1969,0.1976,0.1982,0.1987,0.1982,0.1986,0.1991,0.1999,0.2002,0.2007,0.2016,0.2023,0.2023,0.2029,0.2035,0.2033,0.2037,0.2036,0.2037,0.2014,0.2011,0.2038,0.2038,0.2038,0.2038,0.2038,0.2038,0.1983,0.1995,0.1994,0.2007,0.2009,0.2017,0.202,0.2024,0.2026,0.2036,0.2042,0.2042,0.2044,0.205,0.2056,0.2056,0.2059,0.2064,0.2063,0.2041,0.2038,0.2035,0.2033,0.2064,0.2064,0.2085,0.2085,0.2085]},{"header":{"parameterUnit":"m.s-1","parameterCategory":1,"la1":30.2991,"la2":30.254,"lo1":-89.0895,"lo2":-89.0444,"dy":0.0017,"dx":0.0017,"nx":28,"ny":28,"refTime":"2024-03-31T21:00:00:Z","depth":0,"parameterNumber":3,"parameterNumberName":"V-component_of_WINDS"},"data":[0,0,0,0,0,0,0,0,0,0,0,0,0,0,0,0,0,0,0,0,0,0,0,0,0,0,0,0,0,0,0,0,0,0,0,0,0,0,0,0,0,0,0,0,0,0,0,0,0,0,0,0,0,0,0,0,0,0,3.5436,3.5437,0,3.5531,3.5532,3.5534,3.5569,3.5568,3.5568,3.5568,3.566,3.5662,3.5665,0,0,0,0,0,0,0,0,0,0,0,0,0,3.5279,3.5282,3.5436,3.5437,3.5438,3.5531,3.5533,3.5534,3.5569,3.5568,3.5568,3.5568,3.5659,3.5662,3.5665,0,0,0,0,0,0,0,0,0,0,0,0,0,3.5358,3.5283,3.5436,3.5467,3.5471,3.5531,3.5533,3.5534,3.5569,3.5568,3.5568,3.5568,3.5658,3.5662,3.5666,3.57,0,0,3.5678,3.568,0,0,0,0,0,0,0,0,3.5353,3.5364,3.5461,3.5465,3.5469,3.5538,3.5511,3.559,3.5569,3.5531,3.5568,3.5567,3.5619,3.5626,3.5645,3.5704,3.5708,3.5679,3.5681,3.5683,3.5684,0,0,0,0,0,0,0,3.5348,3.536,3.5474,3.5463,3.5468,3.5475,3.5486,3.5526,3.5576,3.5535,3.5537,3.5549,3.5621,3.5641,3.5648,3.571,3.5679,3.5682,3.5685,3.5686,3.5803,3.5803,0,0,0,0,0,0,3.5338,3.5355,3.547,3.5476,3.5409,3.5478,3.549,3.5516,3.5576,3.5585,3.5549,3.555,3.5634,3.5643,3.5651,3.5696,3.5683,3.5687,3.5689,3.5802,3.5803,3.5803,0,0,0,0,0,0,3.5335,3.5348,3.5467,3.5417,3.5432,3.5481,3.551,3.5518,3.5538,3.5587,3.5596,3.556,3.5634,3.5645,3.5688,3.57,3.5689,3.5692,3.5801,3.5802,3.5803,3.5786,0,0,0,0,0,0,3.533,3.5347,3.5361,3.5417,3.5435,3.5504,3.5511,3.552,3.5546,3.5548,3.56,3.5608,3.5635,3.5682,3.5692,3.5705,3.5695,3.58,3.5802,3.5803,3.5786,3.5786,3.5787,0,0,0,0,0,3.5324,3.5351,3.5362,3.5375,3.5454,3.5504,3.5515,3.5547,3.5547,3.5561,3.5593,3.5606,3.5697,3.5686,3.5698,3.5712,3.58,3.5801,3.5803,3.5785,3.5786,3.5787,0,0,0,0,0,0,3.5293,3.5359,3.5371,3.5417,3.5455,3.551,3.553,3.5546,3.5583,3.5583,3.562,3.5631,3.5671,3.5696,3.5683,3.5749,3.5749,3.5753,3.5732,3.5733,3.5733,3.5727,3.5699,0,0,0,0,0,3.5292,3.5329,3.5383,3.5418,3.5437,3.548,3.5503,3.5525,3.5564,3.558,3.5615,3.5651,3.5688,3.5712,3.5748,3.5789,3.5801,3.5805,3.5805,3.5805,3.5808,3.5833,3.5835,3.5808,3.5808,3.5808,0,0,3.5289,3.5329,3.535,3.5413,3.5445,3.5482,3.5493,3.553,3.5558,3.5585,3.5629,3.5655,3.5699,3.5742,3.5762,3.5763,3.5818,3.5807,3.5807,3.581,3.5835,3.5837,3.5839,3.5809,3.5809,3.5809,0,0,3.5303,3.5337,3.5371,3.5404,3.5453,3.5481,3.5489,3.5542,3.5562,3.5607,3.5629,3.566,3.5722,3.5753,3.5777,3.5803,3.5818,3.5814,3.5816,3.584,3.5842,3.5844,3.5854,3.5858,3.5817,3.5817,3.5817,0,3.5293,3.535,3.5386,3.5423,3.545,3.5479,3.5513,3.5542,3.56,3.5617,3.5618,3.5698,3.5729,3.578,3.5787,3.5804,3.5814,3.5809,3.5839,3.5842,3.5844,3.5854,3.5858,3.5816,3.5816,3.5816,3.5816,0,3.5336,3.5375,3.5396,3.5454,3.5484,3.5519,3.5558,3.5583,3.5602,3.563,3.5676,3.5714,3.576,3.5773,3.5791,3.5826,3.5826,3.5832,3.5833,3.5845,3.5856,3.586,3.5815,3.5815,3.5815,3.5816,0,0,3.5333,3.5411,3.5418,3.5446,3.5502,3.5533,3.5569,3.5616,3.5637,3.5675,3.5706,3.5759,3.5766,3.5793,3.5814,3.5835,3.5855,3.5839,3.5841,3.5841,3.5897,3.5893,3.5897,3.5864,3.5865,3.5866,3.5894,0,3.5355,3.5424,3.5457,3.5511,3.5548,3.5576,3.5608,3.5645,3.5672,3.5706,3.5735,3.5773,3.5779,3.5795,3.5817,3.5848,3.5867,3.5846,3.5893,3.5894,3.5883,3.5902,3.5898,3.5922,3.5898,3.5899,3.5899,0,3.539,3.5432,3.549,3.5544,3.5561,3.5589,3.5635,3.5667,3.571,3.5728,3.5759,3.578,3.5818,3.5816,3.5869,3.5854,3.5875,3.5893,3.5895,3.5901,3.5898,3.591,3.5931,3.5935,3.5906,3.5905,3.5905,0,3.5384,3.5454,3.5498,3.552,3.5584,3.5603,3.563,3.5673,3.5699,3.5738,3.5756,3.5798,3.5821,3.5853,3.5884,3.588,3.5934,3.5934,3.595,3.595,3.5961,3.596,3.5987,3.5973,3.5973,3.5973,3.5972,0,3.5406,3.544,3.5496,3.5523,3.5563,3.56,3.5638,3.5666,3.5704,3.5737,3.5762,3.5792,3.5832,3.5866,3.589,3.5931,3.594,3.5956,3.5962,3.5954,3.5952,3.5969,3.5968,3.5974,3.5973,3.5973,3.5973,0,3.5405,3.5444,3.5495,3.5552,3.5567,3.5593,3.5641,3.5668,3.5697,3.5738,3.5749,3.5794,3.5835,3.587,3.5924,3.594,3.5983,3.5989,3.5969,3.5973,3.5987,3.5985,3.6026,3.6034,3.6013,3.6013,3.6013,0,3.5417,3.5445,3.5506,3.5531,3.5558,3.5597,3.5625,3.5662,3.569,3.5742,3.5762,3.5806,3.5844,3.5908,3.5944,3.5986,3.5994,3.6006,3.6001,3.5992,3.5996,3.5994,3.5998,3.6006,3.6006,3.6006,3.6006,0,3.5435,3.5453,3.5493,3.5541,3.5574,3.5612,3.5651,3.5669,3.5713,3.5743,3.5787,3.5816,3.5873,3.5916,3.5962,3.5987,3.6004,3.6008,3.6014,3.6006,3.5994,3.6002,3.5971,3.6007,3.6007,3.6007,3.6007,3.6007,3.5442,3.5469,3.5516,3.556,3.5594,3.563,3.5659,3.5692,3.5731,3.5781,3.58,3.5846,3.5888,3.5951,3.5978,3.6013,3.6015,3.6023,3.6025,3.6027,3.6027,3.5988,3.6021,3.6021,3.6021,3.6021,3.6021,0,3.5462,3.5494,3.5535,3.559,3.5624,3.5639,3.5683,3.5711,3.5751,3.579,3.5828,3.5878,3.5921,3.5961,3.6005,3.6025,3.6034,3.6035,3.6035,3.6041,3.6022,3.6013,3.6028,3.6028,3.6028,3.6028,3.6028,3.6028,3.5476,3.5523,3.5547,3.561,3.5642,3.5689,3.5713,3.5746,3.5778,3.5834,3.5871,3.5897,3.5937,3.5984,3.6023,3.6034,3.6049,3.6049,3.6061,3.6043,3.6042,3.6041,3.6033,3.6052,3.6052,3.6078,3.6078,3.6078]}]]